Time,TemperatureF,DewpointF,PressureIn,WindDirection,WindDirectionDegrees,WindSpeedMPH,WindSpeedGustMPH,Humidity,HourlyPrecipIn,Conditions,Clouds,dailyrainin,SoftwareType,DateUTC
2013-10-28 00:11:00,60.6,57.0,30.05,South,174,1.0,2.0,87,0.00,,,0.00,weatherlink.com 1.10,2013-10-28 05:11:00,
2013-10-28 00:27:00,60.3,57.0,30.05,South,176,1.0,3.0,88,0.00,,,0.00,weatherlink.com 1.10,2013-10-28 05:27:00,
2013-10-28 00:42:00,60.0,57.0,30.04,SSE,168,1.0,3.0,89,0.00,,,0.00,weatherlink.com 1.10,2013-10-28 05:42:00,
2013-10-28 00:57:00,59.8,57.0,30.04,SSE,162,0.0,3.0,90,0.00,,,0.00,weatherlink.com 1.10,2013-10-28 05:57:00,
2013-10-28 01:12:00,59.5,57.0,30.04,South,180,1.0,3.0,91,0.00,,,0.00,weatherlink.com 1.10,2013-10-28 06:12:00,
2013-10-28 01:27:00,59.4,57.0,30.05,South,176,0.0,2.0,91,0.00,,,0.00,weatherlink.com 1.10,2013-10-28 06:27:00,
2013-10-28 01:42:00,59.3,57.0,30.04,SSW,208,0.0,2.0,92,0.00,,,0.00,weatherlink.com 1.10,2013-10-28 06:42:00,
2013-10-28 01:57:00,59.0,57.0,30.04,SSE,148,1.0,3.0,93,0.00,,,0.00,weatherlink.com 1.10,2013-10-28 06:57:00,
2013-10-28 02:12:00,58.7,57.0,30.04,SSW,207,1.0,2.0,93,0.00,,,0.00,weatherlink.com 1.10,2013-10-28 07:12:00,
2013-10-28 02:27:00,58.5,57.0,30.04,SSW,197,0.0,1.0,94,0.00,,,0.00,weatherlink.com 1.10,2013-10-28 07:27:00,
2013-10-28 02:42:00,58.4,57.0,30.04,SSE,167,1.0,-999.0,94,-99.99,,,0.00,weatherlink.com 1.10,2013-10-28 07:42:00,
2013-10-28 02:57:00,58.5,57.0,30.04,South,176,1.0,3.0,95,0.00,,,0.00,weatherlink.com 1.10,2013-10-28 07:57:00,
2013-10-28 03:12:00,58.5,57.0,30.04,SSE,164,0.0,2.0,95,0.00,,,0.00,weatherlink.com 1.10,2013-10-28 08:12:00,
2013-10-28 03:42:00,58.2,57.0,30.04,SSE,165,0.0,2.0,95,0.00,,,0.00,weatherlink.com 1.10,2013-10-28 08:42:00,
2013-10-28 03:57:00,58.6,58.0,30.04,SSW,210,1.0,2.0,96,0.00,,,0.00,weatherlink.com 1.10,2013-10-28 08:57:00,
2013-10-28 04:12:00,58.8,57.0,30.05,SSW,212,0.0,2.0,95,0.00,,,0.00,weatherlink.com 1.10,2013-10-28 09:12:00,
2013-10-28 04:27:00,58.8,57.0,30.04,SSW,212,0.0,1.0,95,0.00,,,0.00,weatherlink.com 1.10,2013-10-28 09:27:00,
2013-10-28 04:42:00,58.9,58.0,30.05,SW,214,2.0,3.0,95,0.00,,,0.00,weatherlink.com 1.10,2013-10-28 09:42:00,
2013-10-28 04:57:00,59.1,58.0,30.05,South,181,0.0,3.0,95,0.00,,,0.00,weatherlink.com 1.10,2013-10-28 09:57:00,
2013-10-28 05:12:00,59.6,59.0,30.04,SSE,165,0.0,3.0,96,0.00,,,0.00,weatherlink.com 1.10,2013-10-28 10:12:00,
2013-10-28 05:27:00,60.1,59.0,30.04,SE,131,2.0,3.0,96,0.00,,,0.00,weatherlink.com 1.10,2013-10-28 10:27:00,
2013-10-28 05:42:00,60.4,59.0,30.05,East,91,1.0,1.0,95,0.00,,,0.00,weatherlink.com 1.10,2013-10-28 10:42:00,
2013-10-28 05:57:00,60.8,59.0,30.05,SSE,153,2.0,5.0,95,0.00,,,0.00,weatherlink.com 1.10,2013-10-28 10:57:00,
2013-10-28 06:27:00,61.5,60.0,30.06,ESE,113,1.0,3.0,95,0.00,,,0.00,weatherlink.com 1.10,2013-10-28 11:27:00,
2013-10-28 06:42:00,61.7,60.0,30.06,ESE,120,0.0,1.0,95,0.00,,,0.00,weatherlink.com 1.10,2013-10-28 11:42:00,
2013-10-28 06:57:00,62.0,60.0,30.06,East,99,2.0,2.0,94,0.00,,,0.00,weatherlink.com 1.10,2013-10-28 11:57:00,
2013-10-28 07:12:00,62.1,60.0,30.06,SSE,148,1.0,3.0,94,0.00,,,0.00,weatherlink.com 1.10,2013-10-28 12:12:00,
2013-10-28 07:27:00,62.2,60.0,30.07,SE,132,4.0,5.0,93,0.00,,,0.00,weatherlink.com 1.10,2013-10-28 12:27:00,
2013-10-28 07:42:00,62.3,60.0,30.07,ESE,107,0.0,6.0,93,0.00,,,0.00,weatherlink.com 1.10,2013-10-28 12:42:00,
2013-10-28 07:57:00,62.4,60.0,30.07,SE,124,3.0,6.0,93,0.00,,,0.00,weatherlink.com 1.10,2013-10-28 12:57:00,
2013-10-28 08:12:00,62.5,61.0,30.08,East,98,3.0,8.0,93,0.00,,,0.00,weatherlink.com 1.10,2013-10-28 13:12:00,
2013-10-28 08:27:00,62.6,61.0,30.09,SSE,160,1.0,5.0,93,0.00,,,0.00,weatherlink.com 1.10,2013-10-28 13:27:00,
2013-10-28 08:42:00,62.8,61.0,30.09,SSE,150,4.0,5.0,92,0.00,,,0.00,weatherlink.com 1.10,2013-10-28 13:42:00,
2013-10-28 08:57:00,63.0,61.0,30.10,SE,139,3.0,7.0,92,0.00,,,0.00,weatherlink.com 1.10,2013-10-28 13:57:00,
2013-10-28 09:12:00,63.3,61.0,30.10,SE,131,2.0,5.0,91,0.00,,,0.00,weatherlink.com 1.10,2013-10-28 14:12:00,
2013-10-28 09:27:00,63.7,61.0,30.11,ESE,113,3.0,6.0,91,0.00,,,0.00,weatherlink.com 1.10,2013-10-28 14:27:00,
2013-10-28 09:42:00,64.0,61.0,30.11,SE,127,4.0,8.0,90,0.00,,,0.00,weatherlink.com 1.10,2013-10-28 14:42:00,
2013-10-28 09:57:00,64.7,61.0,30.11,South,181,4.0,8.0,88,0.00,,,0.00,weatherlink.com 1.10,2013-10-28 14:57:00,
2013-10-28 10:12:00,65.2,62.0,30.12,SE,124,5.0,8.0,88,0.00,,,0.00,weatherlink.com 1.10,2013-10-28 15:12:00,
2013-10-28 10:28:00,65.5,61.0,30.12,East,100,6.0,8.0,86,0.00,,,0.00,weatherlink.com 1.10,2013-10-28 15:28:00,
2013-10-28 10:43:00,66.2,62.0,30.12,ESE,110,4.0,8.0,86,0.00,,,0.00,weatherlink.com 1.10,2013-10-28 15:43:00,
2013-10-28 10:58:00,67.2,63.0,30.11,South,184,7.0,8.0,85,0.00,,,0.00,weatherlink.com 1.10,2013-10-28 15:58:00,
2013-10-28 11:13:00,68.0,63.0,30.11,SSE,149,3.0,9.0,84,0.00,,,0.00,weatherlink.com 1.10,2013-10-28 16:13:00,
2013-10-28 11:28:00,68.6,63.0,30.12,SE,131,3.0,8.0,83,0.00,,,0.00,weatherlink.com 1.10,2013-10-28 16:28:00,
2013-10-28 11:43:00,68.4,63.0,30.12,SSE,162,5.0,10.0,84,0.00,,,0.00,weatherlink.com 1.10,2013-10-28 16:43:00,
2013-10-28 11:58:00,69.6,64.0,30.11,SW,218,5.0,11.0,83,0.00,,,0.00,weatherlink.com 1.10,2013-10-28 16:58:00,
2013-10-28 12:13:00,70.1,65.0,30.11,SSE,160,6.0,11.0,83,0.00,,,0.00,weatherlink.com 1.10,2013-10-28 17:13:00,
2013-10-28 12:28:00,70.6,65.0,30.10,SSE,158,5.0,12.0,82,0.00,,,0.00,weatherlink.com 1.10,2013-10-28 17:28:00,
2013-10-28 12:43:00,70.9,65.0,30.09,SW,224,4.0,10.0,82,0.00,,,0.00,weatherlink.com 1.10,2013-10-28 17:43:00,
2013-10-28 12:58:00,70.9,65.0,30.09,SE,137,7.0,12.0,82,0.00,,,0.00,weatherlink.com 1.10,2013-10-28 17:58:00,
2013-10-28 13:13:00,71.1,65.0,30.08,WSW,245,5.0,11.0,82,0.00,,,0.00,weatherlink.com 1.10,2013-10-28 18:13:00,
2013-10-28 13:28:00,71.4,66.0,30.07,SSE,158,6.0,12.0,82,0.00,,,0.00,weatherlink.com 1.10,2013-10-28 18:28:00,
2013-10-28 13:43:00,71.9,66.0,30.07,SE,143,7.0,11.0,81,0.00,,,0.00,weatherlink.com 1.10,2013-10-28 18:43:00,
2013-10-28 13:58:00,72.8,66.0,30.06,SSE,166,9.0,10.0,80,0.00,,,0.00,weatherlink.com 1.10,2013-10-28 18:58:00,
2013-10-28 14:13:00,73.9,67.0,30.05,SSE,168,6.0,11.0,78,0.00,,,0.00,weatherlink.com 1.10,2013-10-28 19:13:00,
2013-10-28 14:28:00,74.7,67.0,30.04,SE,146,7.0,13.0,76,0.00,,,0.00,weatherlink.com 1.10,2013-10-28 19:28:00,
2013-10-28 14:43:00,75.2,67.0,30.04,SSW,205,4.0,16.0,75,0.00,,,0.00,weatherlink.com 1.10,2013-10-28 19:43:00,
2013-10-28 14:58:00,75.7,67.0,30.03,South,191,5.0,13.0,74,0.00,,,0.00,weatherlink.com 1.10,2013-10-28 19:58:00,
2013-10-28 15:13:00,75.0,67.0,30.03,SSE,148,7.0,11.0,75,0.00,,,0.00,weatherlink.com 1.10,2013-10-28 20:13:00,
2013-10-28 15:28:00,75.4,67.0,30.03,SW,218,3.0,12.0,74,0.00,,,0.00,weatherlink.com 1.10,2013-10-28 20:28:00,
2013-10-28 15:43:00,75.6,67.0,30.02,SSE,162,4.0,12.0,74,0.00,,,0.00,weatherlink.com 1.10,2013-10-28 20:43:00,
2013-10-28 15:58:00,75.6,66.0,30.02,SSW,207,5.0,11.0,73,0.00,,,0.00,weatherlink.com 1.10,2013-10-28 20:58:00,
2013-10-28 16:13:00,75.3,67.0,30.02,South,181,8.0,10.0,74,0.00,,,0.00,weatherlink.com 1.10,2013-10-28 21:13:00,
2013-10-28 16:28:00,75.6,67.0,30.02,South,177,2.0,8.0,74,0.00,,,0.00,weatherlink.com 1.10,2013-10-28 21:28:00,
2013-10-28 16:43:00,75.9,67.0,30.02,SE,132,6.0,9.0,74,0.00,,,0.00,weatherlink.com 1.10,2013-10-28 21:43:00,
2013-10-28 16:58:00,76.4,67.0,30.02,SE,137,4.0,10.0,73,0.00,,,0.00,weatherlink.com 1.10,2013-10-28 21:58:00,
2013-10-28 17:13:00,76.0,68.0,30.01,SE,137,8.0,11.0,75,0.00,,,0.00,weatherlink.com 1.10,2013-10-28 22:13:00,
2013-10-28 17:43:00,75.8,67.0,30.01,SE,146,3.0,11.0,74,0.00,,,0.00,weatherlink.com 1.10,2013-10-28 22:43:00,
2013-10-28 17:58:00,75.5,67.0,30.01,SE,124,4.0,10.0,75,0.00,,,0.00,weatherlink.com 1.10,2013-10-28 22:58:00,
2013-10-28 18:14:00,75.3,67.0,30.01,ESE,108,6.0,10.0,75,0.00,,,0.00,weatherlink.com 1.10,2013-10-28 23:14:00,
2013-10-28 18:29:00,74.8,67.0,30.01,SE,138,2.0,8.0,76,0.00,,,0.00,weatherlink.com 1.10,2013-10-28 23:29:00,
2013-10-28 18:44:00,74.2,67.0,30.01,SE,131,4.0,8.0,78,0.00,,,0.00,weatherlink.com 1.10,2013-10-28 23:44:00,
2013-10-28 18:59:00,73.6,67.0,30.01,ESE,121,2.0,4.0,79,0.00,,,0.00,weatherlink.com 1.10,2013-10-28 23:59:00,
2013-10-28 19:14:00,73.1,67.0,30.02,ESE,121,2.0,4.0,80,0.00,,,0.00,weatherlink.com 1.10,2013-10-29 00:14:00,
2013-10-28 19:29:00,73.3,67.0,30.02,SE,128,4.0,6.0,81,0.00,,,0.00,weatherlink.com 1.10,2013-10-29 00:29:00,
2013-10-28 19:44:00,73.2,67.0,30.03,SE,124,4.0,7.0,82,0.00,,,0.00,weatherlink.com 1.10,2013-10-29 00:44:00,
2013-10-28 19:59:00,73.3,68.0,30.03,SE,124,7.0,8.0,82,0.00,,,0.00,weatherlink.com 1.10,2013-10-29 00:59:00,
2013-10-28 20:14:00,73.2,67.0,30.03,ESE,121,4.0,9.0,82,0.00,,,0.00,weatherlink.com 1.10,2013-10-29 01:14:00,
2013-10-28 20:29:00,73.3,67.0,30.04,East,86,9.0,9.0,81,0.00,,,0.00,weatherlink.com 1.10,2013-10-29 01:29:00,
2013-10-28 20:44:00,73.2,67.0,30.04,SE,145,3.0,10.0,81,0.00,,,0.00,weatherlink.com 1.10,2013-10-29 01:44:00,
2013-10-28 20:59:00,73.1,67.0,30.05,SE,129,4.0,9.0,80,0.00,,,0.00,weatherlink.com 1.10,2013-10-29 01:59:00,
2013-10-28 21:14:00,72.9,67.0,30.04,East,94,8.0,11.0,81,0.00,,,0.00,weatherlink.com 1.10,2013-10-29 02:14:00,
2013-10-28 21:29:00,72.7,67.0,30.05,SE,144,6.0,9.0,81,0.00,,,0.00,weatherlink.com 1.10,2013-10-29 02:29:00,
2013-10-28 21:44:00,72.4,66.0,30.04,ESE,103,10.0,11.0,81,0.00,,,0.00,weatherlink.com 1.10,2013-10-29 02:44:00,
2013-10-28 21:59:00,72.2,66.0,30.04,SE,132,3.0,10.0,82,0.00,,,0.00,weatherlink.com 1.10,2013-10-29 02:59:00,
2013-10-28 22:14:00,72.0,67.0,30.04,SE,132,8.0,12.0,83,0.00,,,0.00,weatherlink.com 1.10,2013-10-29 03:14:00,
2013-10-28 22:29:00,71.7,66.0,30.04,SE,141,6.0,11.0,83,0.00,,,0.00,weatherlink.com 1.10,2013-10-29 03:29:00,
2013-10-28 22:44:00,71.6,67.0,30.05,SE,134,5.0,14.0,84,0.00,,,0.00,weatherlink.com 1.10,2013-10-29 03:44:00,
2013-10-28 22:59:00,71.4,66.0,30.05,SE,127,8.0,11.0,84,0.00,,,0.00,weatherlink.com 1.10,2013-10-29 03:59:00,
2013-10-28 23:14:00,71.2,67.0,30.05,SE,131,9.0,14.0,85,0.00,,,0.00,weatherlink.com 1.10,2013-10-29 04:14:00,
2013-10-28 23:29:00,71.1,67.0,30.05,SE,136,10.0,16.0,86,0.00,,,0.00,weatherlink.com 1.10,2013-10-29 04:29:00,
2013-10-28 23:44:00,71.1,67.0,30.05,SSE,160,7.0,14.0,86,0.00,,,0.00,weatherlink.com 1.10,2013-10-29 04:44:00,
2013-10-28 23:59:00,70.8,67.0,30.05,SE,124,9.0,12.0,87,0.00,,,0.00,weatherlink.com 1.10,2013-10-29 04:59:00,